• In Latvia
  • List of Countries
  • For 7 days
  • Water Temperature
  • Satellite Maps
  • Weather Map
  • Weather Widgets
  • user-avatar
    Login

    Hourly Weather Dagestanskaya

    Today, 17 July, Tuesday

    Time Temperature Precipitation Wind Pressure Humidity
    00:00 +19°C° 0 mm 3 mps 729 mmHg 74%
    01:00 +19°C° 0 mm 3 mps 729 mmHg 74%
    02:00 +19°C° 0 mm 3 mps 729 mmHg 74%
    03:00 +19°C° 0 mm 3 mps 728 mmHg 78%
    04:00 +19°C° 0 mm 3 mps 728 mmHg 78%
    05:00 +19°C° 0 mm 3 mps 728 mmHg 79%
    06:00 +19°C° 0 mm 3 mps 728 mmHg 80%
    07:00 +21°C° 0 mm 3 mps 729 mmHg 72%
    08:00 +23°C° 0 mm 4 mps 729 mmHg 63%
    09:00 +26°C° 0 mm 4 mps 729 mmHg 55%
    10:00 +27°C° 0.1 mm 5 mps 729 mmHg 51%
    11:00 +28°C° 0.1 mm 5 mps 729 mmHg 48%
    12:00 +29°C° 0.1 mm 5 mps 729 mmHg 44%
    13:00 +29°C° 0 mm 5 mps 729 mmHg 45%
    14:00 +29°C° 0 mm 6 mps 729 mmHg 45%
    15:00 +29°C° 0 mm 6 mps 729 mmHg 45%
    16:00 +28°C° 0.1 mm 5 mps 729 mmHg 50%
    17:00 +27°C° 0.1 mm 5 mps 729 mmHg 54%
    18:00 +27°C° 0.1 mm 4 mps 729 mmHg 59%
    19:00 +25°C° 0.1 mm 4 mps 729 mmHg 66%
    20:00 +22°C° 0.1 mm 3 mps 729 mmHg 73%
    21:00 +20°C° 0.1 mm 3 mps 729 mmHg 80%
    22:00 +20°C° 0 mm 3 mps 729 mmHg 80%
    23:00 +19°C° 0 mm 3 mps 729 mmHg 80%

    Tomorrow, 18 July, Wednesday

    Time Temperature Precipitation Wind Pressure Humidity
    00:00 +19°C° 0 mm 3 mps 729 mmHg 80%
    01:00 +19°C° 0 mm 3 mps 729 mmHg 80%
    02:00 +18°C° 0 mm 2 mps 729 mmHg 79%
    03:00 +18°C° 0 mm 2 mps 729 mmHg 79%
    04:00 +18°C° 0 mm 2 mps 729 mmHg 78%
    05:00 +18°C° 0 mm 2 mps 728 mmHg 78%
    06:00 +19°C° 0 mm 2 mps 728 mmHg 77%
    07:00 +21°C° 0 mm 2 mps 728 mmHg 69%
    08:00 +25°C° 0 mm 2 mps 728 mmHg 62%
    09:00 +27°C° 0 mm 2 mps 728 mmHg 54%
    10:00 +28°C° 0 mm 2 mps 728 mmHg 50%
    11:00 +30°C° 0 mm 2 mps 728 mmHg 47%
    12:00 +31°C° 0 mm 2 mps 728 mmHg 43%
    13:00 +31°C° 0 mm 2 mps 728 mmHg 46%
    14:00 +30°C° 0 mm 2 mps 728 mmHg 48%
    15:00 +30°C° 0 mm 2 mps 728 mmHg 51%
    16:00 +30°C° 0 mm 1 mps 728 mmHg 54%
    17:00 +29°C° 0 mm 1 mps 727 mmHg 56%
    18:00 +29°C° 0 mm 1 mps 727 mmHg 59%
    19:00 +27°C° 0 mm 1 mps 727 mmHg 66%
    20:00 +25°C° 0 mm 1 mps 727 mmHg 72%
    21:00 +23°C° 0 mm 1 mps 727 mmHg 79%
    22:00 +22°C° 0 mm 1 mps 727 mmHg 80%
    23:00 +22°C° 0 mm 1 mps 727 mmHg 82%

    Day after tomorrow, 19 July, Thursday

    Time Temperature Precipitation Wind Pressure Humidity
    00:00 +21°C° 0 mm 1 mps 727 mmHg 83%
    01:00 +21°C° 0 mm 1 mps 727 mmHg 80%
    02:00 +20°C° 0 mm 1 mps 727 mmHg 76%
    03:00 +20°C° 0 mm 1 mps 727 mmHg 73%
    04:00 +20°C° 0 mm 1 mps 727 mmHg 71%
    05:00 +20°C° 0 mm 1 mps 727 mmHg 68%
    06:00 +20°C° 0 mm 1 mps 727 mmHg 66%
    07:00 +23°C° 0 mm 1 mps 727 mmHg 60%
    08:00 +25°C° 0 mm 1 mps 727 mmHg 55%
    09:00 +28°C° 0 mm 1 mps 727 mmHg 50%
    10:00 +29°C° 0 mm 1 mps 728 mmHg 46%
    11:00 +31°C° 0 mm 1 mps 728 mmHg 41%
    12:00 +32°C° 0 mm 2 mps 728 mmHg 37%
    13:00 +32°C° 0 mm 2 mps 728 mmHg 39%
    14:00 +32°C° 0 mm 2 mps 728 mmHg 42%
    15:00 +32°C° 0 mm 2 mps 728 mmHg 45%
    16:00 +31°C° 0.3 mm 1 mps 728 mmHg 50%
    17:00 +30°C° 0.3 mm 1 mps 728 mmHg 56%
    18:00 +29°C° 0.3 mm 1 mps 728 mmHg 61%
    19:00 +27°C° 0.2 mm 1 mps 728 mmHg 66%
    20:00 +25°C° 0.2 mm 1 mps 728 mmHg 71%
    21:00 +23°C° 0.2 mm 1 mps 728 mmHg 76%
    22:00 +23°C° 0 mm 1 mps 727 mmHg 77%
    23:00 +22°C° 0 mm 1 mps 727 mmHg 78%

    20 July, Friday

    Time Temperature Precipitation Wind Pressure Humidity
    00:00 +20°C° 0 mm 2 mps 727 mmHg 78%
    01:00 +21°C° 0 mm 1 mps 727 mmHg 77%
    02:00 +21°C° 0 mm 1 mps 727 mmHg 75%
    03:00 +20°C° 0 mm 1 mps 727 mmHg 73%
    04:00 +21°C° 0.1 mm 1 mps 727 mmHg 73%
    05:00 +21°C° 0.1 mm 1 mps 728 mmHg 72%
    06:00 +21°C° 0.1 mm 1 mps 728 mmHg 71%
    07:00 +23°C° 0 mm 1 mps 728 mmHg 65%
    08:00 +26°C° 0 mm 1 mps 728 mmHg 58%
    09:00 +29°C° 0 mm 1 mps 728 mmHg 51%
    10:00 +30°C° 0 mm 1 mps 728 mmHg 49%
    11:00 +31°C° 0 mm 2 mps 728 mmHg 47%
    12:00 +32°C° 0 mm 2 mps 728 mmHg 44%
    13:00 +32°C° 0.3 mm 2 mps 728 mmHg 46%
    14:00 +32°C° 0.3 mm 2 mps 728 mmHg 47%
    15:00 +32°C° 0.3 mm 2 mps 728 mmHg 48%
    16:00 +31°C° 0.4 mm 2 mps 728 mmHg 54%
    17:00 +30°C° 0.4 mm 1 mps 728 mmHg 60%
    18:00 +28°C° 0.4 mm 1 mps 728 mmHg 66%
    19:00 +27°C° 0.3 mm 1 mps 728 mmHg 73%
    20:00 +25°C° 0.3 mm 1 mps 728 mmHg 80%
    21:00 +23°C° 0.3 mm 1 mps 728 mmHg 87%
    22:00 +22°C° 0.1 mm 1 mps 728 mmHg 89%
    23:00 +22°C° 0.1 mm 1 mps 728 mmHg 91%

    21 July, Saturday

    Time Temperature Precipitation Wind Pressure Humidity
    00:00 +20°C° 0.1 mm 2 mps 728 mmHg 93%
    01:00 +20°C° 0 mm 2 mps 728 mmHg 92%
    02:00 +20°C° 0 mm 2 mps 728 mmHg 92%
    03:00 +19°C° 0 mm 2 mps 728 mmHg 92%
    04:00 +19°C° 0 mm 2 mps 728 mmHg 90%
    05:00 +20°C° 0 mm 2 mps 728 mmHg 88%
    06:00 +20°C° 0 mm 2 mps 728 mmHg 86%
    07:00 +23°C° 0 mm 2 mps 728 mmHg 77%
    08:00 +26°C° 0 mm 2 mps 729 mmHg 67%
    09:00 +29°C° 0 mm 2 mps 729 mmHg 58%
    10:00 +30°C° 0 mm 2 mps 729 mmHg 54%
    11:00 +31°C° 0 mm 2 mps 729 mmHg 51%
    12:00 +32°C° 0 mm 2 mps 729 mmHg 48%
    13:00 +31°C° 0.3 mm 2 mps 729 mmHg 52%
    14:00 +31°C° 0.3 mm 2 mps 728 mmHg 57%
    15:00 +30°C° 0.3 mm 2 mps 728 mmHg 61%
    16:00 +29°C° 1 mm 2 mps 728 mmHg 66%
    17:00 +29°C° 1 mm 2 mps 728 mmHg 71%
    18:00 +28°C° 1 mm 1 mps 728 mmHg 76%
    19:00 +26°C° 1.2 mm 1 mps 729 mmHg 80%
    20:00 +25°C° 1.2 mm 1 mps 729 mmHg 84%
    21:00 +24°C° 1.2 mm 1 mps 729 mmHg 88%
    22:00 +23°C° 0.2 mm 1 mps 729 mmHg 89%
    23:00 +23°C° 0.2 mm 1 mps 729 mmHg 89%

    22 July, Sunday

    Time Temperature Precipitation Wind Pressure Humidity
    00:00 +22°C° 0.2 mm 1 mps 729 mmHg 90%
    01:00 +22°C° 0 mm 1 mps 728 mmHg 91%
    02:00 +22°C° 0 mm 1 mps 728 mmHg 91%
    03:00 +22°C° 0 mm 1 mps 728 mmHg 91%
    04:00 +22°C° 0 mm 1 mps 728 mmHg 91%
    05:00 +22°C° 0 mm 1 mps 728 mmHg 91%
    06:00 +22°C° 0 mm 1 mps 728 mmHg 91%
    07:00 +24°C° 0.2 mm 1 mps 729 mmHg 84%
    08:00 +26°C° 0.2 mm 1 mps 729 mmHg 77%
    09:00 +26°C° 0.2 mm 0 mps 729 mmHg 70%
    10:00 +29°C° 0.5 mm 1 mps 729 mmHg 66%
    11:00 +30°C° 0.5 mm 1 mps 728 mmHg 63%
    12:00 +31°C° 0.5 mm 1 mps 728 mmHg 60%
    13:00 +31°C° 0.7 mm 1 mps 728 mmHg 61%
    14:00 +31°C° 0.7 mm 1 mps 728 mmHg 62%
    15:00 +31°C° 0.7 mm 1 mps 728 mmHg 64%
    16:00 +30°C° 1.2 mm 1 mps 727 mmHg 69%
    17:00 +29°C° 1.2 mm 1 mps 727 mmHg 75%
    18:00 +28°C° 1.2 mm 1 mps 727 mmHg 81%
    19:00 +26°C° 0.2 mm 1 mps 727 mmHg 84%
    20:00 +25°C° 0.2 mm 1 mps 727 mmHg 86%
    21:00 +24°C° 0.2 mm 1 mps 727 mmHg 89%
    22:00 +23°C° 0.4 mm 1 mps 727 mmHg 90%
    23:00 +23°C° 0.4 mm 1 mps 727 mmHg 91%
    Show more